Total_Precipitation_Accumulation
1.12 1.24 1.33 1.63 1.91 2.06 2.23 2.39 2.51 2.62 2.89 3.09 3.10 2.99 2.84 2.60 2.49 2.47 2.39 2.29 2.22 2.29 2.30 2.11 1.98 1.99 1.91 1.79 1.77 1.78 1.83 1.77 1.67 1.71 1.62 1.47 1.33 1.22 1.10 1.02 0.98 0.92 0.87
1.00 1.13 1.21 1.38 1.60 1.83 2.05 2.29 2.42 2.53 2.57 2.64 2.89 3.04 3.09 2.92 2.65 2.50 2.43 2.32 2.23 2.24 2.26 2.29 2.21 2.11 2.04 1.97 1.96 1.99 2.02 2.02 2.00 2.00 2.00 1.85 1.69 1.37 1.15 1.10 1.06 1.00 0.98
0.88 0.99 1.12 1.34 1.44 1.59 1.84 2.13 2.29 2.43 2.48 2.54 2.82 3.05 3.22 3.05 2.72 2.40 2.27 2.29 2.27 2.26 2.18 2.18 2.27 2.25 2.19 2.06 2.01 2.01 2.05 2.10 2.08 2.06 2.19 2.01 1.67 1.34 1.18 1.05 0.99 1.00 1.02
0.76 0.82 0.94 1.13 1.26 1.41 1.60 1.78 1.99 2.16 2.37 2.48 2.58 2.66 2.79 2.80 2.54 2.40 2.30 2.35 2.38 2.34 2.28 2.22 2.23 2.23 2.19 2.08 2.05 2.00 1.99 2.07 2.09 2.06 1.99 1.88 1.58 1.42 1.29 1.13 1.02 1.00 1.02
0.75 0.76 0.90 1.08 1.15 1.25 1.50 1.66 1.73 1.93 2.16 2.33 2.40 2.55 2.57 2.60 2.66 2.62 2.51 2.43 2.41 2.35 2.29 2.24 2.24 2.16 2.09 2.07 2.14 2.09 2.06 2.08 2.06 1.99 1.93 1.94 1.75 1.50 1.43 1.27 1.11 1.09 1.05
0.80 0.85 0.98 1.07 1.11 1.18 1.34 1.56 1.57 1.66 1.83 2.11 2.33 2.39 2.36 2.41 2.46 2.45 2.40 2.39 2.39 2.36 2.27 2.16 2.12 2.09 2.08 2.07 2.12 2.19 2.14 2.14 2.16 2.08 1.96 1.96 1.96 1.76 1.65 1.54 1.30 1.25 1.17
0.74 0.83 0.95 0.95 1.01 1.12 1.23 1.38 1.49 1.56 1.65 1.84 2.06 2.24 2.33 2.35 2.37 2.38 2.33 2.24 2.16 2.09 2.06 2.08 2.02 1.97 1.92 1.95 2.02 2.13 2.14 2.10 2.11 2.10 2.06 1.99 1.92 1.80 1.78 1.77 1.61 1.50 1.38
0.62 0.66 0.79 0.87 0.94 1.05 1.12 1.16 1.22 1.29 1.35 1.45 1.60 1.81 2.07 2.20 2.13 2.13 2.09 2.05 1.98 1.96 1.96 1.96 1.97 1.96 1.94 1.91 1.94 1.99 2.05 2.06 2.00 1.92 1.92 1.90 1.84 1.86 1.88 1.87 1.92 1.91 1.68
0.66 0.64 0.72 0.77 0.83 0.95 1.07 1.06 1.06 1.12 1.20 1.23 1.32 1.45 1.68 1.85 1.89 1.92 1.86 1.77 1.74 1.79 1.81 1.81 1.83 1.87 1.90 1.89 1.91 1.93 1.92 1.92 1.92 1.89 1.83 1.77 1.67 1.70 1.73 1.75 1.86 2.06 2.00
0.68 0.64 0.68 0.73 0.74 0.83 0.96 0.99 1.01 1.04 1.17 1.20 1.23 1.30 1.40 1.50 1.66 1.75 1.65 1.58 1.56 1.59 1.61 1.62 1.63 1.66 1.71 1.76 1.81 1.81 1.77 1.75 1.72 1.74 1.77 1.74 1.64 1.64 1.69 1.78 1.83 1.92 2.00
0.69 0.71 0.73 0.75 0.80 0.85 0.89 0.90 0.96 1.02 1.12 1.15 1.11 1.12 1.18 1.23 1.33 1.42 1.46 1.41 1.41 1.40 1.40 1.41 1.43 1.43 1.47 1.54 1.63 1.64 1.64 1.67 1.63 1.62 1.66 1.68 1.65 1.67 1.69 1.79 1.87 1.93 2.02
0.62 0.70 0.71 0.72 0.81 0.85 0.84 0.81 0.85 0.91 1.03 1.05 1.00 0.99 1.04 1.10 1.15 1.19 1.27 1.29 1.29 1.29 1.31 1.30 1.29 1.27 1.26 1.32 1.39 1.44 1.47 1.51 1.53 1.55 1.60 1.62 1.64 1.69 1.71 1.81 1.86 1.86 1.84
0.46 0.54 0.59 0.61 0.65 0.67 0.68 0.75 0.74 0.72 0.79 0.82 0.79 0.79 0.81 0.88 0.97 1.02 1.04 1.09 1.14 1.18 1.21 1.23 1.20 1.20 1.19 1.23 1.26 1.26 1.30 1.33 1.37 1.41 1.47 1.48 1.53 1.60 1.61 1.68 1.76 1.74 1.72
0.38 0.45 0.54 0.52 0.55 0.59 0.60 0.66 0.65 0.62 0.68 0.70 0.67 0.68 0.70 0.72 0.78 0.85 0.85 0.87 0.92 0.99 1.06 1.13 1.13 1.10 1.12 1.18 1.22 1.26 1.26 1.25 1.25 1.27 1.34 1.40 1.44 1.46 1.51 1.60 1.64 1.64 1.68
0.32 0.37 0.49 0.54 0.52 0.57 0.60 0.60 0.64 0.68 0.72 0.74 0.73 0.69 0.67 0.67 0.71 0.76 0.78 0.77 0.77 0.78 0.82 0.92 1.00 1.04 1.05 1.10 1.15 1.20 1.25 1.25 1.24 1.25 1.29 1.37 1.55 1.59 1.56 1.57 1.55 1.56 1.64
0.28 0.31 0.39 0.55 0.52 0.57 0.67 0.68 0.71 0.78 0.80 0.82 0.77 0.74 0.68 0.66 0.63 0.65 0.66 0.68 0.69 0.68 0.72 0.80 0.85 0.92 0.99 1.24 1.28 1.22 1.22 1.28 1.29 1.29 1.26 1.29 1.43 1.44 1.47 1.47 1.47 1.53 1.63
0.25 0.29 0.34 0.50 0.58 0.62 0.73 0.81 0.84 0.88 0.86 0.86 0.79 0.73 0.68 0.65 0.64 0.61 0.61 0.65 0.68 0.70 0.74 0.79 0.84 0.90 1.04 1.28 1.31 1.38 1.29 1.27 1.26 1.25 1.22 1.18 1.14 1.20 1.08 1.17 1.30 1.36 1.39
0.22 0.25 0.31 0.37 0.49 0.53 0.62 0.73 0.81 0.92 0.91 0.89 0.87 0.83 0.81 0.81 0.84 0.84 0.85 0.85 0.83 0.86 0.92 0.97 1.00 1.05 1.16 1.27 1.25 1.29 1.17 1.16 1.13 1.08 1.06 1.02 0.96 0.95 1.00 1.03 1.11 1.05 1.02
0.22 0.23 0.27 0.28 0.35 0.42 0.48 0.58 0.73 0.89 1.02 1.08 1.09 1.09 1.09 1.12 1.15 1.16 1.17 1.17 1.18 1.17 1.15 1.12 1.08 1.07 1.09 1.13 1.11 1.13 1.03 1.04 0.99 0.92 0.90 0.91 0.87 0.99 1.13 1.10 1.05 0.95 0.93
0.25 0.23 0.24 0.26 0.30 0.40 0.48 0.61 0.82 0.99 1.12 1.19 1.23 1.25 1.30 1.36 1.32 1.28 1.24 1.17 1.14 1.16 1.14 1.12 1.07 1.01 0.96 0.97 0.95 0.96 0.91 0.90 0.84 0.79 0.78 0.87 0.88 1.04 1.18 1.11 1.08 1.00 0.84
0.32 0.33 0.35 0.38 0.42 0.47 0.58 0.74 0.88 1.02 1.09 1.12 1.15 1.17 1.14 1.15 1.12 1.08 1.03 0.99 0.95 0.91 0.88 0.84 0.80 0.75 0.77 0.82 0.85 0.89 0.89 0.92 0.89 0.84 0.82 0.82 0.95 1.06 1.14 1.16 1.06 1.02 0.97
0.33 0.42 0.49 0.53 0.54 0.57 0.67 0.76 0.81 0.85 0.85 0.85 0.85 0.86 0.80 0.74 0.73 0.75 0.76 0.74 0.73 0.70 0.67 0.63 0.61 0.58 0.60 0.68 0.75 0.85 0.93 0.98 0.97 0.90 0.85 0.91 1.08 1.16 1.19 1.15 1.10 1.15 1.17
0.19 0.24 0.33 0.39 0.39 0.40 0.46 0.51 0.49 0.47 0.47 0.47 0.50 0.51 0.50 0.48 0.47 0.51 0.54 0.57 0.59 0.60 0.60 0.58 0.58 0.56 0.53 0.58 0.69 0.76 0.88 0.98 0.94 0.89 0.96 1.04 1.10 1.13 1.13 1.15 1.15 1.11 1.04
0.14 0.16 0.18 0.20 0.21 0.22 0.24 0.27 0.26 0.24 0.25 0.29 0.33 0.38 0.42 0.44 0.44 0.45 0.49 0.53 0.57 0.60 0.61 0.61 0.61 0.58 0.53 0.56 0.64 0.73 0.83 0.94 0.96 0.94 0.98 1.01 1.01 1.01 1.02 1.07 1.10 1.07 1.05
0.15 0.17 0.18 0.19 0.20 0.20 0.21 0.21 0.22 0.21 0.22 0.23 0.26 0.31 0.37 0.44 0.46 0.47 0.50 0.56 0.60 0.70 0.84 0.84 0.78 0.79 0.76 0.73 0.89 1.01 1.02 1.05 1.10 1.13 1.07 0.98 0.91 0.92 0.95 0.94 0.97 1.03 1.08
0.19 0.18 0.20 0.22 0.25 0.27 0.29 0.28 0.28 0.27 0.27 0.28 0.28 0.32 0.37 0.42 0.47 0.50 0.51 0.56 0.60 0.66 0.72 0.78 0.82 0.80 0.83 0.88 0.94 0.98 1.03 1.09 1.18 1.23 1.15 0.98 0.89 0.88 0.89 0.92 0.95 0.98 1.03